| time (UTC) | temp F | wind direction | speed knots | gust knots | rain 1hr in | rain 24hr in | rain mn in | humidity % | barometer mb |
| 20260506004500 | 73 | 305 | 1.7 | 7.0 | 0.00 | 0.00 | 0.00 | 48 | 1009.9 |
| 20260506003956 | 74 | 262 | 3.5 | 7.0 | 0.00 | 0.00 | 0.00 | 47 | 1010.1 |
| 20260506003453 | 74 | 230 | 3.5 | 8.7 | 0.00 | 0.00 | 0.00 | 46 | 1009.8 |
| 20260506002949 | 75 | 261 | 4.3 | 7.8 | 0.00 | 0.00 | 0.00 | 44 | 1010.0 |
| 20260506002445 | 75 | 216 | 3.5 | 6.1 | 0.00 | 0.00 | 0.00 | 44 | 1010.0 |
| 20260506001941 | 74 | 196 | 4.3 | 7.8 | 0.00 | 0.00 | 0.00 | 46 | 1009.8 |
| 20260506001438 | 74 | 164 | 4.3 | 6.1 | 0.00 | 0.00 | 0.00 | 46 | 1009.8 |
| 20260506000935 | 74 | 225 | 2.6 | 6.1 | 0.00 | 0.00 | 0.00 | 48 | 1009.6 |
| 20260506000433 | 74 | 196 | 2.6 | 7.8 | 0.00 | 0.00 | 0.00 | 49 | 1009.9 |
| 20260505235929 | 75 | 262 | 4.3 | 7.0 | 0.00 | 0.00 | 0.00 | 47 | 1009.7 |
| 20260505235428 | 75 | 216 | 4.3 | 7.8 | 0.00 | 0.00 | 0.00 | 48 | 1009.7 |
| 20260505234924 | 75 | 147 | 6.1 | 7.8 | 0.00 | 0.00 | 0.00 | 48 | 1009.7 |
| 20260505234422 | 75 | 249 | 6.1 | 8.7 | 0.00 | 0.00 | 0.00 | 48 | 1009.6 |
| 20260505233918 | 75 | 214 | 4.3 | 7.8 | 0.00 | 0.00 | 0.00 | 48 | 1009.7 |
| 20260505233416 | 76 | 244 | 4.3 | 8.7 | 0.00 | 0.00 | 0.00 | 47 | 1009.5 |
| 20260505232913 | 76 | 219 | 4.3 | 8.7 | 0.00 | 0.00 | 0.00 | 47 | 1009.5 |
| 20260505232411 | 77 | 225 | 1.7 | 5.2 | 0.00 | 0.00 | 0.00 | 44 | 1009.4 |
| 20260505231907 | 78 | 227 | 1.7 | 9.6 | 0.00 | 0.00 | 0.00 | 38 | 1009.5 |
| 20260505231405 | 78 | 259 | 7.8 | 8.7 | 0.00 | 0.00 | 0.00 | 38 | 1009.2 |
| 20260505230903 | 78 | 247 | 5.2 | 7.8 | 0.00 | 0.00 | 0.00 | 38 | 1009.3 |
| 20260505230400 | 78 | 255 | 7.0 | 8.7 | 0.00 | 0.00 | 0.00 | 38 | 1009.3 |
| 20260505225857 | 78 | 252 | 5.2 | 8.7 | 0.00 | 0.00 | 0.00 | 37 | 1009.3 |
| 20260505225354 | 79 | 255 | 6.1 | 12.2 | 0.00 | 0.00 | 0.00 | 37 | 1009.1 |
| 20260505224849 | 79 | 287 | 3.5 | 12.2 | 0.00 | 0.00 | 0.00 | 37 | 1009.3 |
| 20260505224347 | 79 | 283 | 7.0 | 9.6 | 0.00 | 0.00 | 0.00 | 37 | 1009.2 |
| 20260505223844 | 80 | 285 | 5.2 | 11.3 | 0.00 | 0.00 | 0.00 | 38 | 1009.4 |
| 20260505223341 | 80 | 257 | 3.5 | 9.6 | 0.00 | 0.00 | 0.00 | 37 | 1009.5 |
| 20260505222836 | 80 | 275 | 5.2 | 9.6 | 0.00 | 0.00 | 0.00 | 38 | 1009.6 |
| 20260505222333 | 79 | 174 | 3.5 | 9.6 | 0.00 | 0.00 | 0.00 | 38 | 1009.3 |
| 20260505221830 | 79 | 244 | 4.3 | 7.8 | 0.00 | 0.00 | 0.00 | 39 | 1009.6 |
| 20260505221327 | 79 | 355 | 6.1 | 7.8 | 0.00 | 0.00 | 0.00 | 38 | 1009.6 |
| 20260505220824 | 79 | 248 | 4.3 | 8.7 | 0.00 | 0.00 | 0.00 | 39 | 1009.5 |
| 20260505220321 | 80 | 241 | 4.3 | 9.6 | 0.00 | 0.00 | 0.00 | 38 | 1009.6 |
| 20260505215819 | 80 | 272 | 7.8 | 9.6 | 0.00 | 0.00 | 0.00 | 38 | 1009.4 |
| 20260505215317 | 82 | 214 | 1.7 | 7.0 | 0.00 | 0.00 | 0.00 | 39 | 1009.4 |
| 20260505214814 | 81 | 308 | 5.2 | 9.6 | 0.00 | 0.00 | 0.00 | 37 | 1009.5 |
| 20260505214312 | 81 | 240 | 6.1 | 11.3 | 0.00 | 0.00 | 0.00 | 37 | 1009.2 |
| 20260505213808 | 82 | 311 | 7.8 | 14.8 | 0.00 | 0.00 | 0.00 | 37 | 1009.3 |
| 20260505213306 | 81 | 341 | 3.5 | 13.0 | 0.00 | 0.00 | 0.00 | 37 | 1009.3 |
| 20260505212802 | 81 | 276 | 7.0 | 13.0 | 0.00 | 0.00 | 0.00 | 36 | 1009.3 |
| 20260505212259 | 81 | 256 | 7.0 | 15.6 | 0.00 | 0.00 | 0.00 | 36 | 1009.2 |
| 20260505211755 | 81 | 248 | 10.4 | 14.8 | 0.00 | 0.00 | 0.00 | 36 | 1009.3 |
| 20260505211253 | 82 | 229 | 6.1 | 14.8 | 0.00 | 0.00 | 0.00 | 36 | 1009.1 |
| 20260505210749 | 82 | 320 | 8.7 | 12.2 | 0.00 | 0.00 | 0.00 | 36 | 1009.2 |
| 20260505210247 | 81 | 240 | 3.5 | 13.9 | 0.00 | 0.00 | 0.00 | 38 | 1009.2 |
| 20260505205743 | 82 | 221 | 4.3 | 11.3 | 0.00 | 0.00 | 0.00 | 36 | 1009.3 |
| 20260505205242 | 82 | 239 | 6.1 | 11.3 | 0.00 | 0.00 | 0.00 | 37 | 1009.3 |
| 20260505204738 | 82 | 244 | 8.7 | 13.9 | 0.00 | 0.00 | 0.00 | 36 | 1009.1 |
| 20260505204236 | 82 | 302 | 1.7 | 7.8 | 0.00 | 0.00 | 0.00 | 38 | 1009.1 |
| 20260505203733 | 82 | 217 | 5.2 | 11.3 | 0.00 | 0.00 | 0.00 | 37 | 1009.2 |
| 20260505203230 | 81 | 321 | 8.7 | 14.8 | 0.00 | 0.00 | 0.00 | 37 | 1009.2 |
| 20260505202725 | 82 | 233 | 7.0 | 8.7 | 0.00 | 0.00 | 0.00 | 38 | 1009.4 |
| 20260505202222 | 82 | 296 | 5.2 | 11.3 | 0.00 | 0.00 | 0.00 | 37 | 1009.3 |
| 20260505201718 | 83 | 283 | 4.3 | 8.7 | 0.00 | 0.00 | 0.00 | 36 | 1009.3 |
| 20260505201216 | 82 | 314 | 7.8 | 13.0 | 0.00 | 0.00 | 0.00 | 37 | 1009.4 |
| 20260505200714 | 82 | 228 | 12.2 | 16.5 | 0.00 | 0.00 | 0.00 | 37 | 1009.5 |
| 20260505200211 | 81 | 275 | 6.1 | 11.3 | 0.00 | 0.00 | 0.00 | 38 | 1009.5 |
| 20260505195707 | 80 | 220 | 5.2 | 13.9 | 0.00 | 0.00 | 0.00 | 38 | 1009.4 |
| 20260505195204 | 80 | 227 | 6.1 | 11.3 | 0.00 | 0.00 | 0.00 | 39 | 1009.4 |
| 20260505194702 | 81 | 264 | 5.2 | 8.7 | 0.00 | 0.00 | 0.00 | 37 | 1009.5 |
| 20260505194157 | 81 | 196 | 7.8 | 14.8 | 0.00 | 0.00 | 0.00 | 39 | 1009.4 |
| 20260505193654 | 82 | 224 | 4.3 | 13.9 | 0.00 | 0.00 | 0.00 | 38 | 1009.5 |
| 20260505193151 | 82 | 317 | 7.0 | 13.0 | 0.00 | 0.00 | 0.00 | 38 | 1009.8 |
| 20260505192649 | 82 | 237 | 4.3 | 15.6 | 0.00 | 0.00 | 0.00 | 38 | 1009.7 |
| 20260505192141 | 82 | 252 | 8.7 | 18.2 | 0.00 | 0.00 | 0.00 | 39 | 1009.8 |
| 20260505191639 | 82 | 253 | 5.2 | 11.3 | 0.00 | 0.00 | 0.00 | 37 | 1009.8 |
| 20260505191137 | 83 | 335 | 4.3 | 11.3 | 0.00 | 0.00 | 0.00 | 38 | 1009.8 |
| 20260505190633 | 83 | 226 | 8.7 | 11.3 | 0.00 | 0.00 | 0.00 | 37 | 1009.9 |
| 20260505190132 | 83 | 248 | 7.8 | 13.0 | 0.00 | 0.00 | 0.00 | 38 | 1010.1 |
| 20260505185630 | 82 | 315 | 3.5 | 11.3 | 0.00 | 0.00 | 0.00 | 40 | 1009.9 |
| 20260505185126 | 82 | 191 | 7.8 | 13.0 | 0.00 | 0.00 | 0.00 | 39 | 1010.2 |
| 20260505184623 | 82 | 247 | 10.4 | 14.8 | 0.00 | 0.00 | 0.00 | 37 | 1010.0 |
| 20260505184120 | 82 | 314 | 7.0 | 14.8 | 0.00 | 0.00 | 0.00 | 39 | 1010.1 |
| 20260505183616 | 80 | 316 | 6.1 | 13.0 | 0.00 | 0.00 | 0.00 | 40 | 1010.1 |
| 20260505183114 | 81 | 316 | 8.7 | 15.6 | 0.00 | 0.00 | 0.00 | 39 | 1010.2 |
| 20260505182610 | 81 | 246 | 2.6 | 11.3 | 0.00 | 0.00 | 0.00 | 40 | 1010.3 |
| 20260505182107 | 81 | 317 | 5.2 | 9.6 | 0.00 | 0.00 | 0.00 | 38 | 1010.4 |
| 20260505181604 | 82 | 327 | 4.3 | 11.3 | 0.00 | 0.00 | 0.00 | 38 | 1010.3 |
| 20260505181101 | 81 | 223 | 7.8 | 11.3 | 0.00 | 0.00 | 0.00 | 39 | 1010.5 |
| 20260505180556 | 80 | 285 | 7.0 | 11.3 | 0.00 | 0.00 | 0.00 | 39 | 1010.5 |
| 20260505180055 | 80 | 251 | 12.2 | 16.5 | 0.00 | 0.00 | 0.00 | 38 | 1010.7 |
| 20260505175550 | 80 | 336 | 4.3 | 16.5 | 0.00 | 0.00 | 0.00 | 38 | 1010.8 |
| 20260505175047 | 81 | 298 | 5.2 | 8.7 | 0.00 | 0.00 | 0.00 | 42 | 1010.6 |
| 20260505174544 | 81 | 197 | 3.5 | 7.0 | 0.00 | 0.00 | 0.00 | 45 | 1010.6 |
| 20260505174040 | 81 | 240 | 4.3 | 9.6 | 0.00 | 0.00 | 0.00 | 44 | 1010.7 |
| 20260505173537 | 78 | 310 | 2.6 | 7.8 | 0.00 | 0.00 | 0.00 | 45 | 1010.9 |
| 20260505173034 | 80 | 178 | 7.8 | 13.0 | 0.00 | 0.00 | 0.00 | 44 | 1010.9 |
| 20260505172532 | 80 | 258 | 3.5 | 7.8 | 0.00 | 0.00 | 0.00 | 44 | 1010.8 |
| 20260505172028 | 80 | 248 | 6.1 | 13.9 | 0.00 | 0.00 | 0.00 | 45 | 1010.8 |
| 20260505171522 | 80 | 328 | 5.2 | 15.6 | 0.00 | 0.00 | 0.00 | 43 | 1011.1 |
| 20260505171020 | 79 | 231 | 9.6 | 13.9 | 0.00 | 0.00 | 0.00 | 45 | 1011.1 |
| 20260505170516 | 80 | 253 | 3.5 | 13.0 | 0.00 | 0.00 | 0.00 | 44 | 1011.1 |
| 20260505170013 | 79 | 248 | 3.5 | 8.7 | 0.00 | 0.00 | 0.00 | 46 | 1011.2 |
| 20260505165508 | 79 | 341 | 5.2 | 19.1 | 0.00 | 0.00 | 0.00 | 46 | 1011.2 |
| 20260505165004 | 80 | 317 | 4.3 | 8.7 | 0.00 | 0.00 | 0.00 | 45 | 1011.3 |
| 20260505164500 | 80 | 246 | 4.3 | 12.2 | 0.00 | 0.00 | 0.00 | 47 | 1011.5 |
| 20260505163959 | 79 | 320 | 6.1 | 14.8 | 0.00 | 0.00 | 0.00 | 46 | 1011.3 |
| 20260505163457 | 79 | 222 | 7.0 | 9.6 | 0.00 | 0.00 | 0.00 | 47 | 1011.6 |
| 20260505162956 | 79 | 275 | 2.6 | 13.0 | 0.00 | 0.00 | 0.00 | 46 | 1011.7 |
| 20260505162451 | 79 | 310 | 5.2 | 9.6 | 0.00 | 0.00 | 0.00 | 46 | 1011.7 |
| 20260505161948 | 78 | 301 | 3.5 | 11.3 | 0.00 | 0.00 | 0.00 | 46 | 1011.6 |
| 20260505161445 | 79 | 295 | 5.2 | 11.3 | 0.00 | 0.00 | 0.00 | 46 | 1011.5 |
| 20260505160942 | 79 | 325 | 4.3 | 9.6 | 0.00 | 0.00 | 0.00 | 47 | 1011.5 |
| 20260505160440 | 78 | 265 | 4.3 | 9.6 | 0.00 | 0.00 | 0.00 | 48 | 1011.7 |
| 20260505152916 | 77 | 260 | 5.2 | 7.8 | 0.00 | 0.00 | 0.00 | 50 | 1011.9 |
| 20260505152413 | 77 | 263 | 5.2 | 9.6 | 0.00 | 0.00 | 0.00 | 51 | 1011.8 |
| 20260505151908 | 77 | 274 | 2.6 | 7.0 | 0.00 | 0.00 | 0.00 | 52 | 1011.9 |
| 20260505151405 | 76 | 256 | 6.1 | 11.3 | 0.00 | 0.00 | 0.00 | 50 | 1011.9 |
| 20260505150901 | 76 | 331 | 4.3 | 7.0 | 0.00 | 0.00 | 0.00 | 50 | 1011.9 |
| 20260505150359 | 76 | 317 | 5.2 | 13.0 | 0.00 | 0.00 | 0.00 | 50 | 1011.9 |
| 20260505140317 | 73 | 234 | 2.6 | 7.0 | 0.00 | 0.00 | 0.00 | 56 | 1012.3 |
| 20260505130241 | 67 | 290 | 2.6 | 7.0 | 0.00 | 0.00 | 0.00 | 64 | 1013.0 |
| 20260505124731 | 67 | 262 | 2.6 | 6.1 | 0.00 | 0.00 | 0.00 | 63 | 1012.7 |
| 20260505124228 | 67 | 327 | 4.3 | 7.0 | 0.00 | 0.00 | 0.00 | 64 | 1012.9 |
| 20260505123723 | 66 | 256 | 2.6 | 5.2 | 0.00 | 0.00 | 0.00 | 64 | 1012.7 |
| 20260505123220 | 66 | 286 | 3.5 | 7.8 | 0.00 | 0.00 | 0.00 | 65 | 1012.7 |
| 20260505122717 | 66 | 322 | 3.5 | 6.1 | 0.00 | 0.00 | 0.00 | 64 | 1012.8 |
| 20260505122214 | 65 | 311 | 3.5 | 9.6 | 0.00 | 0.00 | 0.00 | 65 | 1012.6 |
| 20260505121711 | 65 | 255 | 7.8 | 9.6 | 0.00 | 0.00 | 0.00 | 65 | 1012.5 |
| 20260505121207 | 64 | 0 | 2.6 | 7.0 | 0.00 | 0.00 | 0.00 | 66 | 1012.5 |
| 20260505120704 | 65 | 298 | 4.3 | 6.1 | 0.00 | 0.00 | 0.00 | 66 | 1012.5 |
| 20260505120159 | 65 | 224 | 0.9 | 6.1 | 0.00 | 0.00 | 0.00 | 67 | 1012.3 |
| 20260505115653 | 65 | 237 | 4.3 | 7.0 | 0.00 | 0.00 | 0.00 | 66 | 1012.5 |
| 20260505115151 | 64 | 307 | 3.5 | 6.1 | 0.00 | 0.00 | 0.00 | 68 | 1012.5 |
| 20260505114648 | 64 | 224 | 1.7 | 3.5 | 0.00 | 0.00 | 0.00 | 69 | 1012.4 |
| 20260505114144 | 63 | 292 | 1.7 | 5.2 | 0.00 | 0.00 | 0.00 | 69 | 1012.2 |
| 20260505113641 | 62 | 247 | 1.7 | 6.1 | 0.00 | 0.00 | 0.00 | 70 | 1012.1 |
| 20260505113138 | 62 | 255 | 1.7 | 3.5 | 0.00 | 0.00 | 0.00 | 71 | 1012.5 |
| 20260505112633 | 62 | 297 | 2.6 | 5.2 | 0.00 | 0.00 | 0.00 | 71 | 1012.4 |
| 20260505112132 | 62 | 257 | 2.6 | 3.5 | 0.00 | 0.00 | 0.00 | 71 | 1012.3 |
| 20260505111626 | 62 | 317 | 2.6 | 6.1 | 0.00 | 0.00 | 0.00 | 71 | 1012.4 |
| 20260505111122 | 62 | 350 | 4.3 | 5.2 | 0.00 | 0.00 | 0.00 | 70 | 1012.1 |
| 20260505110618 | 61 | 318 | 2.6 | 5.2 | 0.00 | 0.00 | 0.00 | 72 | 1012.0 |
| 20260505110115 | 59 | 195 | 0.0 | 0.9 | 0.00 | 0.00 | 0.00 | 77 | 1012.2 |
| 20260505102051 | 54 | 136 | 0.9 | 1.7 | 0.00 | 0.00 | 0.00 | 84 | 1011.8 |
| 20260505101550 | 54 | 148 | 0.0 | 0.0 | 0.00 | 0.00 | 0.00 | 84 | 1011.8 |
| 20260505101046 | 54 | 91 | 0.9 | 0.9 | 0.00 | 0.00 | 0.00 | 84 | 1011.8 |
| 20260505100542 | 54 | 105 | 0.0 | 0.9 | 0.00 | 0.00 | 0.00 | 84 | 1011.7 |
| 20260505100039 | 54 | 141 | 0.0 | 0.9 | 0.00 | 0.00 | 0.00 | 83 | 1011.9 |
| 20260505095535 | 54 | 110 | 0.0 | 0.9 | 0.00 | 0.00 | 0.00 | 83 | 1011.6 |
| 20260505095032 | 54 | 84 | 0.0 | 0.9 | 0.00 | 0.00 | 0.00 | 83 | 1011.6 |
| 20260505094528 | 55 | 133 | 0.9 | 1.7 | 0.00 | 0.00 | 0.00 | 82 | 1011.8 |
| 20260505094025 | 55 | 90 | 0.0 | 0.9 | 0.00 | 0.00 | 0.00 | 82 | 1011.5 |
| 20260505093521 | 54 | 73 | 0.0 | 0.9 | 0.00 | 0.00 | 0.00 | 82 | 1011.5 |
| 20260505093019 | 55 | 40 | 0.9 | 1.7 | 0.00 | 0.00 | 0.00 | 83 | 1011.6 |
| 20260505092516 | 56 | 199 | 0.9 | 1.7 | 0.00 | 0.00 | 0.00 | 80 | 1011.7 |
| 20260505092014 | 56 | 71 | 0.9 | 0.9 | 0.00 | 0.00 | 0.00 | 79 | 1011.4 |
| 20260505091511 | 56 | 149 | 0.0 | 1.7 | 0.00 | 0.00 | 0.00 | 78 | 1011.5 |
| 20260505091009 | 57 | 148 | 0.0 | 0.9 | 0.00 | 0.00 | 0.00 | 77 | 1011.6 |
| 20260505090507 | 56 | 42 | 0.9 | 1.7 | 0.00 | 0.00 | 0.00 | 78 | 1011.3 |
| 20260505090004 | 56 | 139 | 0.9 | 1.7 | 0.00 | 0.00 | 0.00 | 78 | 1011.5 |
| 20260505085502 | 56 | 140 | 0.0 | 0.9 | 0.00 | 0.00 | 0.00 | 78 | 1011.5 |
| 20260505085000 | 57 | 106 | 0.9 | 1.7 | 0.00 | 0.00 | 0.00 | 76 | 1011.5 |
| 20260505084458 | 57 | 139 | 1.7 | 1.7 | 0.00 | 0.00 | 0.00 | 76 | 1011.4 |
| 20260505083956 | 57 | 77 | 0.0 | 0.9 | 0.00 | 0.00 | 0.00 | 76 | 1011.5 |
| 20260505083453 | 57 | 152 | 1.7 | 1.7 | 0.00 | 0.00 | 0.00 | 76 | 1011.4 |
| 20260505082949 | 58 | 284 | 0.0 | 0.0 | 0.00 | 0.00 | 0.00 | 75 | 1011.4 |
| 20260505082445 | 59 | 187 | 1.7 | 2.6 | 0.00 | 0.00 | 0.00 | 73 | 1011.4 |
| 20260505081942 | 59 | 62 | 0.9 | 1.7 | 0.00 | 0.00 | 0.00 | 73 | 1011.2 |
| 20260505081439 | 59 | 110 | 0.9 | 0.9 | 0.00 | 0.00 | 0.00 | 73 | 1011.2 |
| 20260505080935 | 59 | 148 | 0.9 | 0.9 | 0.00 | 0.00 | 0.00 | 72 | 1011.3 |
| 20260505080431 | 60 | 143 | 0.9 | 1.7 | 0.00 | 0.00 | 0.00 | 71 | 1011.4 |
| 20260505075927 | 60 | 130 | 1.7 | 1.7 | 0.00 | 0.00 | 0.00 | 71 | 1011.5 |
| 20260505075424 | 60 | 166 | 0.9 | 1.7 | 0.00 | 0.00 | 0.00 | 71 | 1011.3 |
| 20260505074921 | 60 | 203 | 0.9 | 0.9 | 0.00 | 0.00 | 0.00 | 70 | 1011.2 |
| 20260505074419 | 61 | 109 | 0.0 | 1.7 | 0.00 | 0.00 | 0.00 | 68 | 1011.3 |
| 20260505073915 | 62 | 150 | 0.9 | 0.9 | 0.00 | 0.00 | 0.00 | 67 | 1011.1 |
| 20260505073413 | 63 | 92 | 0.9 | 1.7 | 0.00 | 0.00 | 0.00 | 65 | 1011.1 |
| 20260505072910 | 64 | 287 | 0.9 | 1.7 | 0.00 | 0.00 | 0.00 | 63 | 1011.0 |
| 20260505072406 | 65 | 226 | 0.9 | 1.7 | 0.00 | 0.00 | 0.00 | 62 | 1010.8 |
| 20260505071903 | 64 | 281 | 3.5 | 7.8 | 0.00 | 0.00 | 0.00 | 62 | 1011.0 |
| 20260505071359 | 63 | 240 | 1.7 | 5.2 | 0.00 | 0.00 | 0.00 | 63 | 1011.2 |
| 20260505070857 | 63 | 263 | 2.6 | 2.6 | 0.00 | 0.00 | 0.00 | 64 | 1011.2 |
| 20260505070353 | 64 | 276 | 2.6 | 2.6 | 0.00 | 0.00 | 0.00 | 63 | 1011.0 |
| 20260505065849 | 64 | 262 | 4.3 | 6.1 | 0.00 | 0.00 | 0.00 | 61 | 1011.3 |
| 20260505065346 | 64 | 318 | 1.7 | 3.5 | 0.00 | 0.00 | 0.00 | 61 | 1011.1 |
| 20260505064843 | 64 | 262 | 3.5 | 7.0 | 0.00 | 0.00 | 0.00 | 61 | 1011.4 |
| 20260505064340 | 64 | 268 | 2.6 | 7.0 | 0.00 | 0.00 | 0.00 | 61 | 1011.4 |
| 20260505063838 | 64 | 264 | 4.3 | 8.7 | 0.00 | 0.00 | 0.00 | 61 | 1011.5 |
| 20260505063333 | 64 | 231 | 5.2 | 7.0 | 0.00 | 0.00 | 0.00 | 61 | 1011.3 |
| 20260505062830 | 64 | 227 | 3.5 | 5.2 | 0.00 | 0.00 | 0.00 | 60 | 1011.3 |
| 20260505062328 | 65 | 240 | 5.2 | 8.7 | 0.00 | 0.00 | 0.00 | 60 | 1011.5 |
| 20260505061824 | 65 | 282 | 2.6 | 5.2 | 0.00 | 0.00 | 0.00 | 60 | 1011.2 |
| 20260505061323 | 65 | 209 | 4.3 | 7.0 | 0.00 | 0.00 | 0.00 | 59 | 1011.4 |
| 20260505060820 | 66 | 294 | 3.5 | 7.8 | 0.00 | 0.00 | 0.00 | 58 | 1011.3 |
| 20260505060316 | 66 | 236 | 2.6 | 7.8 | 0.00 | 0.00 | 0.00 | 58 | 1011.3 |
| 20260505055812 | 67 | 307 | 4.3 | 13.0 | 0.00 | 0.00 | 0.00 | 56 | 1011.2 |
| 20260505055308 | 66 | 252 | 5.2 | 11.3 | 0.00 | 0.00 | 0.00 | 57 | 1011.3 |
| 20260505054806 | 67 | 240 | 2.6 | 8.7 | 0.00 | 0.00 | 0.00 | 57 | 1011.3 |
| 20260505054303 | 67 | 267 | 5.2 | 8.7 | 0.00 | 0.00 | 0.00 | 57 | 1011.2 |
| 20260505053801 | 66 | 219 | 7.0 | 9.6 | 0.00 | 0.00 | 0.00 | 57 | 1011.1 |
| 20260505053258 | 65 | 232 | 4.3 | 11.3 | 0.00 | 0.00 | 0.00 | 58 | 1010.8 |
| 20260505052755 | 65 | 233 | 5.2 | 9.6 | 0.00 | 0.00 | 0.00 | 58 | 1011.1 |
| 20260505052252 | 65 | 294 | 4.3 | 9.6 | 0.00 | 0.00 | 0.00 | 58 | 1010.9 |
| 20260505051749 | 65 | 236 | 6.1 | 11.3 | 0.00 | 0.00 | 0.00 | 58 | 1011.1 |
| 20260505051247 | 65 | 263 | 5.2 | 11.3 | 0.00 | 0.00 | 0.00 | 57 | 1011.0 |
| 20260505050744 | 65 | 5 | 7.0 | 13.0 | 0.00 | 0.00 | 0.00 | 57 | 1010.9 |
| 20260505050243 | 65 | 225 | 5.2 | 9.6 | 0.00 | 0.00 | 0.00 | 58 | 1011.1 |
| 20260505041712 | 65 | 260 | 5.2 | 11.3 | 0.00 | 0.00 | 0.00 | 56 | 1011.0 |
| 20260505041210 | 65 | 166 | 3.5 | 12.2 | 0.00 | 0.00 | 0.00 | 56 | 1010.9 |
| 20260505040707 | 65 | 216 | 5.2 | 14.8 | 0.00 | 0.00 | 0.00 | 56 | 1010.9 |
| 20260505040204 | 65 | 237 | 4.3 | 11.3 | 0.00 | 0.00 | 0.00 | 57 | 1010.9 |
| 20260505035701 | 65 | 290 | 3.5 | 12.2 | 0.00 | 0.00 | 0.00 | 57 | 1010.9 |
| 20260505035156 | 65 | 239 | 7.8 | 11.3 | 0.00 | 0.00 | 0.00 | 57 | 1011.0 |
| 20260505034653 | 64 | 256 | 6.1 | 9.6 | 0.00 | 0.00 | 0.00 | 57 | 1010.9 |
| 20260505034151 | 65 | 244 | 5.2 | 9.6 | 0.00 | 0.00 | 0.00 | 57 | 1010.9 |
| 20260505033646 | 65 | 264 | 6.1 | 8.7 | 0.00 | 0.00 | 0.00 | 57 | 1010.8 |
| 20260505033145 | 65 | 251 | 4.3 | 8.7 | 0.00 | 0.00 | 0.00 | 57 | 1010.6 |
| 20260505032643 | 64 | 260 | 5.2 | 11.3 | 0.00 | 0.00 | 0.00 | 56 | 1010.6 |
| 20260505032138 | 65 | 247 | 7.8 | 11.3 | 0.00 | 0.00 | 0.00 | 56 | 1010.6 |
| 20260505031636 | 65 | 219 | 6.1 | 8.7 | 0.00 | 0.00 | 0.00 | 56 | 1010.7 |
| 20260505031132 | 65 | 229 | 7.8 | 12.2 | 0.00 | 0.00 | 0.00 | 55 | 1010.4 |
| 20260505030629 | 65 | 197 | 10.4 | 13.9 | 0.00 | 0.00 | 0.00 | 55 | 1010.7 |
| 20260505030125 | 64 | 258 | 7.0 | 12.2 | 0.00 | 0.00 | 0.00 | 57 | 1010.4 |
| 20260505025621 | 64 | 11 | 2.6 | 7.8 | 0.00 | 0.00 | 0.00 | 58 | 1010.6 |
| 20260505025120 | 64 | 233 | 3.5 | 11.3 | 0.00 | 0.00 | 0.00 | 58 | 1010.5 |
| 20260505024617 | 64 | 291 | 7.8 | 11.3 | 0.00 | 0.00 | 0.00 | 56 | 1010.5 |
| 20260505024114 | 65 | 178 | 5.2 | 16.5 | 0.00 | 0.00 | 0.00 | 56 | 1010.5 |
| 20260505023611 | 64 | 282 | 5.2 | 9.6 | 0.00 | 0.00 | 0.00 | 56 | 1010.6 |
| 20260505023109 | 64 | 242 | 4.3 | 13.9 | 0.00 | 0.00 | 0.00 | 56 | 1010.9 |
| 20260505022606 | 64 | 264 | 3.5 | 8.7 | 0.00 | 0.00 | 0.00 | 56 | 1010.8 |
| 20260505022103 | 64 | 259 | 4.3 | 8.7 | 0.00 | 0.00 | 0.00 | 56 | 1010.9 |
| 20260505021559 | 64 | 229 | 5.2 | 9.6 | 0.00 | 0.00 | 0.00 | 55 | 1010.9 |
| 20260505021056 | 64 | 221 | 5.2 | 9.6 | 0.00 | 0.00 | 0.00 | 56 | 1010.6 |
| 20260505020556 | 64 | 214 | 3.5 | 5.2 | 0.00 | 0.00 | 0.00 | 56 | 1010.8 |
| 20260505020053 | 64 | 253 | 3.5 | 7.0 | 0.00 | 0.00 | 0.00 | 55 | 1010.6 |
| 20260505015551 | 64 | 227 | 7.0 | 8.7 | 0.00 | 0.00 | 0.00 | 55 | 1010.8 |
| 20260505015047 | 64 | 225 | 6.1 | 13.0 | 0.00 | 0.00 | 0.00 | 54 | 1010.9 |
| 20260505014544 | 64 | 330 | 6.1 | 13.0 | 0.00 | 0.00 | 0.00 | 54 | 1010.8 |
| 20260505014041 | 64 | 223 | 3.5 | 9.6 | 0.00 | 0.00 | 0.00 | 54 | 1010.8 |
| 20260505013538 | 64 | 147 | 4.3 | 7.8 | 0.00 | 0.00 | 0.00 | 54 | 1010.8 |
| 20260505013036 | 65 | 218 | 1.7 | 7.0 | 0.00 | 0.00 | 0.00 | 54 | 1010.9 |
| 20260505012534 | 65 | 180 | 5.2 | 8.7 | 0.00 | 0.00 | 0.00 | 52 | 1010.9 |
| 20260505012030 | 65 | 255 | 3.5 | 8.7 | 0.00 | 0.00 | 0.00 | 53 | 1010.7 |
| 20260505011526 | 65 | 190 | 5.2 | 9.6 | 0.00 | 0.00 | 0.00 | 52 | 1010.8 |
| 20260505011023 | 65 | 197 | 4.3 | 12.2 | 0.00 | 0.00 | 0.00 | 52 | 1010.6 |
| 20260505010518 | 65 | 139 | 3.5 | 7.8 | 0.00 | 0.00 | 0.00 | 52 | 1010.8 |
| 20260505010015 | 65 | 193 | 4.3 | 12.2 | 0.00 | 0.00 | 0.00 | 51 | 1010.6 |
| 20260505005512 | 65 | 184 | 5.2 | 7.8 | 0.00 | 0.00 | 0.00 | 51 | 1010.7 |
| 20260505005009 | 66 | 217 | 3.5 | 8.7 | 0.00 | 0.00 | 0.00 | 51 | 1010.9 |